Weather in Chebarkul

Russia / Chelyabinsk Oblast     54°58′40″N   60°22′12″E
temp.,
°C
wind,
m/s
gust,
m/s
humid.,
%
clouds,
%
prec.,
mm/h
press.,
hPa
HPBL,
m
9 may, sun
sun923:00+12w1170100 0.0 101610
02:00+11nw1170100 0.0 101610
05:00+10n1167100 0.1 101619
08:00+14nnw1251100 0.0 1016215
11:00+19nne2433100 0.0 10151521
14:00+19ene3433100 0.0 10152459
17:00+20ne343189 0.0 10162107
20:00+16n2552100 0.0 1017119
10 may, mon
mon1023:00+11nw1170100 0.1 101910
02:00+11wnw2167100 0.0 102023
05:00+9nnw2374100 0.0 102150
08:00+14ne36609 0.0 1022380
11:00+18ene454164 0.0 10221443
14:00+20ene45325 0.0 10221951
17:00+20ene45315 0.0 10222045
20:00+15e25470 0.0 1023101
11 may, tue
tue1123:00+11e115519 0.0 102611
02:00+9wsw00585 0.0 102610
05:00+8wsw116268 0.0 102710
08:00+13ssw1248100 0.0 1027178
11:00+17s2233100 0.0 10271049
14:00+20ssw2229100 0.0 10271641
17:00+20e1228100 0.0 10261774
20:00+16se11485 0.0 102711
12 may, wed
wed1223:00+12sw11545 0.0 102810
02:00+11wsw115980 0.0 102910
05:00+10nw11635 0.0 102910
08:00+14nne2451100 0.0 1029279
11:00+18ne3253100 0.0 1029980
14:00+21ene234254 0.0 10282027
17:00+20ene4546100 0.0 1028658
20:00+17ene226027 0.0 102841
13 may, thu
thu1323:00+13nw1162100 0.0 102910
02:00+11wnw116863 0.0 102911
05:00+11wnw11755 0.0 102911
08:00+17nnw13565 0.0 1029299
11:00+21nne344463 0.0 10281618
14:00+23ne3436100 0.0 10272077
17:00+24nne3434100 0.0 10262310
20:00+20n1152100 0.0 102611